Time,TemperatureF,DewpointF,PressureIn,WindDirection,WindDirectionDegrees,WindSpeedMPH,WindSpeedGustMPH,Humidity,HourlyPrecipIn,Conditions,Clouds,dailyrainin,SoftwareType,DateUTC
2013-06-12 00:13:00,65.7,64.0,29.66,West,277,7.0,9.0,93,0.00,,,0.00,weatherlink.com 1.10,2013-06-12 04:13:00,
2013-06-12 00:28:00,65.8,64.0,29.66,SSW,201,4.0,7.0,93,0.00,,,0.00,weatherlink.com 1.10,2013-06-12 04:28:00,
2013-06-12 00:43:00,65.9,64.0,29.66,West,280,4.0,9.0,92,0.00,,,0.00,weatherlink.com 1.10,2013-06-12 04:43:00,
2013-06-12 00:58:00,65.8,63.0,29.66,West,266,6.0,10.0,90,0.00,,,0.00,weatherlink.com 1.10,2013-06-12 04:58:00,
2013-06-12 01:13:00,65.6,60.0,29.66,WNW,284,13.0,20.0,83,0.00,,,0.00,weatherlink.com 1.10,2013-06-12 05:13:00,
2013-06-12 01:28:00,64.6,60.0,29.66,WNW,284,6.0,18.0,84,0.00,,,0.00,weatherlink.com 1.10,2013-06-12 05:28:00,
2013-06-12 01:43:00,64.1,59.0,29.66,NW,304,3.0,12.0,84,0.00,,,0.00,weatherlink.com 1.10,2013-06-12 05:43:00,
2013-06-12 01:58:00,63.5,59.0,29.66,West,266,4.0,9.0,86,0.00,,,0.00,weatherlink.com 1.10,2013-06-12 05:58:00,
2013-06-12 02:13:00,62.8,60.0,29.66,West,263,1.0,5.0,89,0.00,,,0.00,weatherlink.com 1.10,2013-06-12 06:13:00,
2013-06-12 02:28:00,63.2,60.0,29.66,West,270,5.0,11.0,88,0.00,,,0.00,weatherlink.com 1.10,2013-06-12 06:28:00,
2013-06-12 02:43:00,63.7,60.0,29.66,WNW,291,3.0,10.0,86,0.00,,,0.00,weatherlink.com 1.10,2013-06-12 06:43:00,
2013-06-12 02:58:00,63.6,60.0,29.66,West,274,2.0,9.0,87,0.00,,,0.00,weatherlink.com 1.10,2013-06-12 06:58:00,
2013-06-12 03:13:00,62.9,60.0,29.66,WNW,300,0.0,4.0,89,0.00,,,0.00,weatherlink.com 1.10,2013-06-12 07:13:00,
2013-06-12 03:28:00,62.7,60.0,29.66,WNW,302,3.0,7.0,90,0.00,,,0.00,weatherlink.com 1.10,2013-06-12 07:28:00,
2013-06-12 03:43:00,63.1,60.0,29.66,WSW,240,9.0,10.0,88,0.00,,,0.00,weatherlink.com 1.10,2013-06-12 07:43:00,
2013-06-12 03:58:00,63.1,59.0,29.66,WSW,255,6.0,13.0,87,0.00,,,0.00,weatherlink.com 1.10,2013-06-12 07:58:00,
2013-06-12 04:13:00,62.3,59.0,29.66,West,278,5.0,6.0,88,0.00,,,0.00,weatherlink.com 1.10,2013-06-12 08:13:00,
2013-06-12 04:28:00,62.2,58.0,29.66,WNW,291,8.0,10.0,87,0.00,,,0.00,weatherlink.com 1.10,2013-06-12 08:28:00,
2013-06-12 04:43:00,62.3,58.0,29.66,NNE,24,6.0,12.0,86,0.00,,,0.00,weatherlink.com 1.10,2013-06-12 08:43:00,
2013-06-12 04:58:00,62.3,57.0,29.68,West,278,9.0,13.0,84,0.00,,,0.00,weatherlink.com 1.10,2013-06-12 08:58:00,
2013-06-12 05:13:00,62.2,57.0,29.68,WNW,294,6.0,11.0,84,0.00,,,0.00,weatherlink.com 1.10,2013-06-12 09:13:00,
2013-06-12 05:28:00,61.8,57.0,29.69,West,271,5.0,9.0,84,0.00,,,0.00,weatherlink.com 1.10,2013-06-12 09:28:00,
2013-06-12 05:43:00,61.9,57.0,29.70,WNW,290,5.0,9.0,84,0.00,,,0.00,weatherlink.com 1.10,2013-06-12 09:43:00,
2013-06-12 05:58:00,62.6,57.0,29.71,SW,235,11.0,16.0,82,0.00,,,0.00,weatherlink.com 1.10,2013-06-12 09:58:00,
2013-06-12 06:13:00,62.4,56.0,29.71,WNW,303,4.0,13.0,80,0.00,,,0.00,weatherlink.com 1.10,2013-06-12 10:13:00,
2013-06-12 06:28:00,63.1,56.0,29.71,West,271,5.0,13.0,78,0.00,,,0.00,weatherlink.com 1.10,2013-06-12 10:28:00,
2013-06-12 06:43:00,63.2,56.0,29.71,West,270,6.0,15.0,77,0.00,,,0.00,weatherlink.com 1.10,2013-06-12 10:43:00,
2013-06-12 06:59:00,63.5,56.0,29.71,WNW,285,7.0,12.0,76,0.00,,,0.00,weatherlink.com 1.10,2013-06-12 10:59:00,
2013-06-12 07:14:00,63.5,56.0,29.71,WSW,240,5.0,15.0,76,0.00,,,0.00,weatherlink.com 1.10,2013-06-12 11:14:00,
2013-06-12 07:29:00,63.6,55.0,29.71,WNW,285,8.0,15.0,74,0.00,,,0.00,weatherlink.com 1.10,2013-06-12 11:29:00,
2013-06-12 07:44:00,64.0,55.0,29.71,NW,311,8.0,15.0,73,0.00,,,0.00,weatherlink.com 1.10,2013-06-12 11:44:00,
2013-06-12 07:59:00,64.7,55.0,29.71,WNW,288,8.0,16.0,72,0.00,,,0.00,weatherlink.com 1.10,2013-06-12 11:59:00,
2013-06-12 08:14:00,65.1,55.0,29.71,SW,217,7.0,20.0,71,0.00,,,0.00,weatherlink.com 1.10,2013-06-12 12:14:00,
2013-06-12 08:29:00,65.3,55.0,29.71,NW,318,12.0,29.0,70,0.00,,,0.00,weatherlink.com 1.10,2013-06-12 12:29:00,
2013-06-12 08:44:00,65.5,55.0,29.71,SW,225,9.0,22.0,70,0.00,,,0.00,weatherlink.com 1.10,2013-06-12 12:44:00,
2013-06-12 08:59:00,65.4,55.0,29.71,WNW,300,10.0,23.0,68,0.00,,,0.00,weatherlink.com 1.10,2013-06-12 12:59:00,
2013-06-12 09:14:00,66.0,55.0,29.71,West,278,13.0,22.0,68,0.00,,,0.00,weatherlink.com 1.10,2013-06-12 13:14:00,
2013-06-12 09:29:00,66.2,55.0,29.71,West,278,7.0,26.0,67,0.00,,,0.00,weatherlink.com 1.10,2013-06-12 13:29:00,
2013-06-12 09:44:00,66.3,55.0,29.71,WNW,287,18.0,26.0,66,0.00,,,0.00,weatherlink.com 1.10,2013-06-12 13:44:00,
2013-06-12 09:59:00,66.4,55.0,29.72,WNW,298,13.0,23.0,66,0.00,,,0.00,weatherlink.com 1.10,2013-06-12 13:59:00,
2013-06-12 10:14:00,67.4,54.0,29.71,West,281,14.0,26.0,63,0.00,,,0.00,weatherlink.com 1.10,2013-06-12 14:14:00,
2013-06-12 10:29:00,67.7,55.0,29.72,WSW,248,18.0,25.0,63,0.00,,,0.00,weatherlink.com 1.10,2013-06-12 14:29:00,
2013-06-12 10:44:00,68.3,55.0,29.72,WNW,293,23.0,27.0,62,0.00,,,0.00,weatherlink.com 1.10,2013-06-12 14:44:00,
2013-06-12 10:59:00,68.8,54.0,29.72,NW,318,16.0,33.0,59,0.00,,,0.00,weatherlink.com 1.10,2013-06-12 14:59:00,
2013-06-12 11:14:00,69.1,54.0,29.72,WNW,293,11.0,24.0,59,0.00,,,0.00,weatherlink.com 1.10,2013-06-12 15:14:00,
2013-06-12 11:29:00,68.9,54.0,29.72,WNW,294,5.0,31.0,59,0.00,,,0.00,weatherlink.com 1.10,2013-06-12 15:29:00,
2013-06-12 11:44:00,69.3,54.0,29.73,WNW,298,12.0,24.0,58,0.00,,,0.00,weatherlink.com 1.10,2013-06-12 15:44:00,
2013-06-12 11:59:00,69.6,54.0,29.73,WNW,293,17.0,20.0,58,0.00,,,0.00,weatherlink.com 1.10,2013-06-12 15:59:00,
2013-06-12 12:14:00,70.0,54.0,29.73,WNW,302,8.0,28.0,58,0.00,,,0.00,weatherlink.com 1.10,2013-06-12 16:14:00,
2013-06-12 12:29:00,69.8,53.0,29.73,NW,315,14.0,27.0,56,0.00,,,0.00,weatherlink.com 1.10,2013-06-12 16:29:00,
2013-06-12 12:44:00,70.1,53.0,29.73,NW,311,15.0,27.0,55,0.00,,,0.00,weatherlink.com 1.10,2013-06-12 16:44:00,
2013-06-12 12:59:00,70.8,54.0,29.74,WSW,255,11.0,23.0,55,0.00,,,0.00,weatherlink.com 1.10,2013-06-12 16:59:00,
2013-06-12 13:14:00,69.6,54.0,29.74,NW,304,17.0,23.0,57,0.00,,,0.00,weatherlink.com 1.10,2013-06-12 17:14:00,
2013-06-12 13:44:00,69.6,54.0,29.74,WNW,300,11.0,28.0,57,0.00,,,0.00,weatherlink.com 1.10,2013-06-12 17:44:00,
2013-06-12 13:59:00,69.9,54.0,29.75,NW,311,13.0,23.0,57,0.00,,,0.00,weatherlink.com 1.10,2013-06-12 17:59:00,
2013-06-12 14:14:00,69.7,53.0,29.75,NW,320,9.0,25.0,56,0.00,,,0.00,weatherlink.com 1.10,2013-06-12 18:14:00,
2013-06-12 14:29:00,70.1,53.0,29.75,WNW,294,13.0,24.0,54,0.00,,,0.00,weatherlink.com 1.10,2013-06-12 18:29:00,
2013-06-12 14:44:00,71.0,53.0,29.75,NW,315,17.0,27.0,54,0.00,,,0.00,weatherlink.com 1.10,2013-06-12 18:44:00,
2013-06-12 14:59:00,70.7,53.0,29.76,NNW,330,13.0,24.0,54,0.00,,,0.00,weatherlink.com 1.10,2013-06-12 18:59:00,
2013-06-12 15:14:00,71.5,53.0,29.76,WNW,302,11.0,25.0,52,0.00,,,0.00,weatherlink.com 1.10,2013-06-12 19:14:00,
2013-06-12 15:29:00,70.2,52.0,29.77,NW,309,23.0,24.0,52,0.00,,,0.00,weatherlink.com 1.10,2013-06-12 19:29:00,
2013-06-12 15:44:00,70.4,53.0,29.77,NW,325,14.0,27.0,54,0.00,,,0.00,weatherlink.com 1.10,2013-06-12 19:44:00,
2013-06-12 15:59:00,71.6,53.0,29.76,West,264,9.0,23.0,52,0.00,,,0.00,weatherlink.com 1.10,2013-06-12 19:59:00,
2013-06-12 16:14:00,71.6,53.0,29.76,NW,314,18.0,29.0,52,0.00,,,0.00,weatherlink.com 1.10,2013-06-12 20:14:00,
2013-06-12 16:30:00,71.0,53.0,29.76,WNW,300,8.0,17.0,54,0.00,,,0.00,weatherlink.com 1.10,2013-06-12 20:30:00,
2013-06-12 16:45:00,70.9,52.0,29.77,NW,307,9.0,24.0,52,0.00,,,0.00,weatherlink.com 1.10,2013-06-12 20:45:00,
2013-06-12 17:00:00,70.4,53.0,29.77,NW,307,12.0,18.0,54,0.00,,,0.00,weatherlink.com 1.10,2013-06-12 21:00:00,
2013-06-12 17:15:00,70.8,52.0,29.77,NW,322,20.0,21.0,52,0.00,,,0.00,weatherlink.com 1.10,2013-06-12 21:15:00,
2013-06-12 17:30:00,71.9,53.0,29.77,NW,307,14.0,21.0,51,0.00,,,0.00,weatherlink.com 1.10,2013-06-12 21:30:00,
2013-06-12 17:45:00,71.1,52.0,29.78,NW,325,9.0,20.0,51,0.00,,,0.00,weatherlink.com 1.10,2013-06-12 21:45:00,
2013-06-12 18:00:00,71.2,53.0,29.79,NW,307,5.0,25.0,52,0.00,,,0.00,weatherlink.com 1.10,2013-06-12 22:00:00,
2013-06-12 18:15:00,71.2,52.0,29.80,North,351,21.0,21.0,51,0.00,,,0.00,weatherlink.com 1.10,2013-06-12 22:15:00,
2013-06-12 18:30:00,70.1,52.0,29.80,WNW,295,6.0,16.0,53,0.00,,,0.00,weatherlink.com 1.10,2013-06-12 22:30:00,
2013-06-12 18:45:00,69.5,52.0,29.81,WNW,295,12.0,14.0,55,0.00,,,0.00,weatherlink.com 1.10,2013-06-12 22:45:00,
2013-06-12 19:00:00,69.6,52.0,29.81,NW,326,6.0,15.0,54,0.00,,,0.00,weatherlink.com 1.10,2013-06-12 23:00:00,
2013-06-12 19:15:00,70.2,53.0,29.82,West,281,2.0,9.0,54,0.00,,,0.00,weatherlink.com 1.10,2013-06-12 23:15:00,
2013-06-12 19:30:00,69.6,53.0,29.82,WNW,302,3.0,11.0,56,0.00,,,0.00,weatherlink.com 1.10,2013-06-12 23:30:00,
2013-06-12 19:45:00,69.2,53.0,29.82,NNW,328,4.0,7.0,57,0.00,,,0.00,weatherlink.com 1.10,2013-06-12 23:45:00,
2013-06-12 20:00:00,68.2,53.0,29.82,WNW,295,3.0,7.0,59,0.00,,,0.00,weatherlink.com 1.10,2013-06-13 00:00:00,
2013-06-12 20:15:00,66.8,54.0,29.83,WNW,285,2.0,5.0,63,0.00,,,0.00,weatherlink.com 1.10,2013-06-13 00:15:00,
2013-06-12 20:30:00,65.8,54.0,29.83,WSW,257,1.0,4.0,66,0.00,,,0.00,weatherlink.com 1.10,2013-06-13 00:30:00,
2013-06-12 20:45:00,65.1,54.0,29.84,West,278,1.0,4.0,68,0.00,,,0.00,weatherlink.com 1.10,2013-06-13 00:45:00,
2013-06-12 21:00:00,64.8,54.0,29.84,West,281,3.0,5.0,69,0.00,,,0.00,weatherlink.com 1.10,2013-06-13 01:00:00,
2013-06-12 21:15:00,64.4,54.0,29.85,West,281,3.0,5.0,69,0.00,,,0.00,weatherlink.com 1.10,2013-06-13 01:15:00,
2013-06-12 21:30:00,63.8,54.0,29.86,WNW,282,1.0,3.0,71,0.00,,,0.00,weatherlink.com 1.10,2013-06-13 01:30:00,
2013-06-12 21:45:00,63.2,54.0,29.86,West,270,2.0,5.0,72,0.00,,,0.00,weatherlink.com 1.10,2013-06-13 01:45:00,
2013-06-12 22:00:00,63.0,54.0,29.86,WNW,296,3.0,5.0,73,0.00,,,0.00,weatherlink.com 1.10,2013-06-13 02:00:00,
2013-06-12 22:15:00,62.9,55.0,29.86,West,266,3.0,4.0,74,0.00,,,0.00,weatherlink.com 1.10,2013-06-13 02:15:00,
2013-06-12 22:30:00,62.4,54.0,29.86,WNW,282,3.0,6.0,75,0.00,,,0.00,weatherlink.com 1.10,2013-06-13 02:30:00,
2013-06-12 22:45:00,61.7,54.0,29.86,WNW,300,3.0,5.0,77,0.00,,,0.00,weatherlink.com 1.10,2013-06-13 02:45:00,
2013-06-12 23:00:00,61.0,54.0,29.86,WNW,292,3.0,3.0,78,0.00,,,0.00,weatherlink.com 1.10,2013-06-13 03:00:00,
2013-06-12 23:15:00,60.6,54.0,29.87,NW,323,1.0,3.0,79,0.00,,,0.00,weatherlink.com 1.10,2013-06-13 03:15:00,
2013-06-12 23:30:00,60.3,54.0,29.87,NW,307,3.0,4.0,79,0.00,,,0.00,weatherlink.com 1.10,2013-06-13 03:30:00,
2013-06-12 23:45:00,60.3,54.0,29.87,NW,318,4.0,5.0,79,0.00,,,0.00,weatherlink.com 1.10,2013-06-13 03:45:00,